• în România
  • Lista ţărilor
  • Pe 7 zile
  • Temperatura apei
  • Hartă satelitară
  • Meteo pe hartă
  • Widget-uri
  • user-avatar
    Intrare

    Meteo pe oră la Birao

    Astăzi, 19 Iunie, Marţi

    Timp Temperatura Precipitaţii Vânt Presiune Umiditate
    00:00 +28°C° 0 mm 2 m/s 717 mmHg 69%
    01:00 +28°C° 0 mm 2 m/s 717 mmHg 71%
    02:00 +28°C° 0 mm 2 m/s 717 mmHg 73%
    03:00 +27°C° 0 mm 2 m/s 717 mmHg 75%
    04:00 +27°C° 0 mm 2 m/s 717 mmHg 77%
    05:00 +26°C° 0 mm 2 m/s 717 mmHg 79%
    06:00 +27°C° 0,1 mm 3 m/s 717 mmHg 76%
    07:00 +27°C° 0,1 mm 3 m/s 718 mmHg 74%
    08:00 +27°C° 0,1 mm 4 m/s 718 mmHg 71%
    09:00 +29°C° 0 mm 4 m/s 718 mmHg 64%
    10:00 +32°C° 0 mm 4 m/s 719 mmHg 56%
    11:00 +34°C° 0 mm 4 m/s 719 mmHg 48%
    12:00 +35°C° 0 mm 4 m/s 718 mmHg 44%
    13:00 +36°C° 0 mm 3 m/s 718 mmHg 41%
    14:00 +37°C° 0 mm 3 m/s 717 mmHg 37%
    15:00 +37°C° 0 mm 3 m/s 717 mmHg 37%
    16:00 +36°C° 0 mm 3 m/s 716 mmHg 38%
    17:00 +36°C° 0 mm 3 m/s 716 mmHg 39%
    18:00 +34°C° 0,4 mm 4 m/s 716 mmHg 47%
    19:00 +32°C° 0,4 mm 4 m/s 716 mmHg 55%
    20:00 +29°C° 0,4 mm 4 m/s 716 mmHg 64%
    21:00 +29°C° 1,8 mm 4 m/s 717 mmHg 67%
    22:00 +28°C° 1,8 mm 3 m/s 717 mmHg 71%
    23:00 +27°C° 1,8 mm 2 m/s 718 mmHg 74%

    Mâine, 20 Iunie, Miercuri

    Timp Temperatura Precipitaţii Vânt Presiune Umiditate
    00:00 +27°C° 0,1 mm 2 m/s 718 mmHg 75%
    01:00 +27°C° 0,1 mm 2 m/s 718 mmHg 76%
    02:00 +26°C° 0,1 mm 2 m/s 718 mmHg 77%
    03:00 +26°C° 0 mm 2 m/s 718 mmHg 77%
    04:00 +26°C° 0 mm 2 m/s 718 mmHg 78%
    05:00 +26°C° 0 mm 3 m/s 718 mmHg 78%
    06:00 +26°C° 0 mm 3 m/s 718 mmHg 76%
    07:00 +26°C° 0 mm 3 m/s 719 mmHg 74%
    08:00 +27°C° 0 mm 3 m/s 720 mmHg 72%
    09:00 +28°C° 0,2 mm 3 m/s 720 mmHg 67%
    10:00 +29°C° 0,2 mm 4 m/s 721 mmHg 62%
    11:00 +30°C° 0,2 mm 4 m/s 721 mmHg 58%
    12:00 +30°C° 0,1 mm 4 m/s 721 mmHg 56%
    13:00 +32°C° 0,1 mm 4 m/s 720 mmHg 54%
    14:00 +32°C° 0,1 mm 4 m/s 720 mmHg 52%
    15:00 +32°C° 0 mm 4 m/s 719 mmHg 52%
    16:00 +32°C° 0 mm 4 m/s 719 mmHg 52%
    17:00 +31°C° 0 mm 3 m/s 718 mmHg 52%
    18:00 +30°C° 0 mm 3 m/s 719 mmHg 55%
    19:00 +29°C° 0 mm 2 m/s 719 mmHg 58%
    20:00 +28°C° 0 mm 1 m/s 719 mmHg 60%
    21:00 +28°C° 0 mm 1 m/s 720 mmHg 62%
    22:00 +28°C° 0 mm 1 m/s 720 mmHg 63%
    23:00 +27°C° 0 mm 1 m/s 720 mmHg 64%

    Poimâine, 21 Iunie, Joi

    Timp Temperatura Precipitaţii Vânt Presiune Umiditate
    00:00 +27°C° 0 mm 1 m/s 720 mmHg 65%
    01:00 +27°C° 0 mm 1 m/s 720 mmHg 67%
    02:00 +26°C° 0 mm 1 m/s 719 mmHg 69%
    03:00 +26°C° 0 mm 1 m/s 719 mmHg 69%
    04:00 +26°C° 0 mm 1 m/s 719 mmHg 70%
    05:00 +26°C° 0 mm 1 m/s 719 mmHg 70%
    06:00 +27°C° 0 mm 1 m/s 720 mmHg 68%
    07:00 +27°C° 0 mm 1 m/s 720 mmHg 65%
    08:00 +28°C° 0 mm 1 m/s 721 mmHg 63%
    09:00 +30°C° 0 mm 2 m/s 721 mmHg 56%
    10:00 +33°C° 0 mm 3 m/s 721 mmHg 49%
    11:00 +35°C° 0 mm 3 m/s 721 mmHg 42%
    12:00 +36°C° 0 mm 3 m/s 721 mmHg 39%
    13:00 +37°C° 0 mm 3 m/s 720 mmHg 36%
    14:00 +38°C° 0 mm 3 m/s 719 mmHg 33%
    15:00 +37°C° 0 mm 3 m/s 719 mmHg 34%
    16:00 +37°C° 0 mm 2 m/s 718 mmHg 35%
    17:00 +36°C° 0 mm 2 m/s 718 mmHg 36%
    18:00 +35°C° 0,2 mm 2 m/s 718 mmHg 40%
    19:00 +34°C° 0,2 mm 2 m/s 719 mmHg 44%
    20:00 +32°C° 0,2 mm 1 m/s 719 mmHg 47%
    21:00 +31°C° 0,7 mm 2 m/s 719 mmHg 54%
    22:00 +29°C° 0,7 mm 2 m/s 720 mmHg 60%
    23:00 +28°C° 0,7 mm 3 m/s 720 mmHg 67%

    22 Iunie, Vineri

    Timp Temperatura Precipitaţii Vânt Presiune Umiditate
    00:00 +28°C° 0,1 mm 3 m/s 719 mmHg 69%
    01:00 +27°C° 0,1 mm 2 m/s 719 mmHg 72%
    02:00 +26°C° 0,1 mm 2 m/s 719 mmHg 74%
    03:00 +26°C° 0,8 mm 2 m/s 719 mmHg 76%
    04:00 +26°C° 0,8 mm 2 m/s 719 mmHg 78%
    05:00 +26°C° 0,8 mm 2 m/s 718 mmHg 80%
    06:00 +26°C° 0,3 mm 2 m/s 719 mmHg 77%
    07:00 +27°C° 0,3 mm 2 m/s 720 mmHg 73%
    08:00 +28°C° 0,3 mm 2 m/s 720 mmHg 70%
    09:00 +30°C° 0 mm 3 m/s 720 mmHg 62%
    10:00 +33°C° 0 mm 3 m/s 720 mmHg 53%
    11:00 +35°C° 0 mm 4 m/s 721 mmHg 45%
    12:00 +36°C° 0 mm 3 m/s 720 mmHg 42%
    13:00 +36°C° 0 mm 3 m/s 719 mmHg 40%
    14:00 +37°C° 0 mm 2 m/s 719 mmHg 37%
    15:00 +37°C° 0 mm 2 m/s 718 mmHg 37%
    16:00 +37°C° 0 mm 2 m/s 718 mmHg 37%
    17:00 +37°C° 0 mm 2 m/s 717 mmHg 37%
    18:00 +35°C° 0,3 mm 2 m/s 717 mmHg 43%
    19:00 +34°C° 0,3 mm 3 m/s 717 mmHg 49%
    20:00 +32°C° 0,3 mm 4 m/s 717 mmHg 55%
    21:00 +30°C° 1 mm 4 m/s 718 mmHg 63%
    22:00 +28°C° 1 mm 3 m/s 718 mmHg 70%
    23:00 +27°C° 1 mm 3 m/s 719 mmHg 78%

    23 Iunie, Sâmbătă

    Timp Temperatura Precipitaţii Vânt Presiune Umiditate
    00:00 +26°C° 9,3 mm 3 m/s 719 mmHg 81%
    01:00 +25°C° 9,3 mm 4 m/s 718 mmHg 85%
    02:00 +25°C° 9,3 mm 4 m/s 718 mmHg 89%
    03:00 +25°C° 0,4 mm 4 m/s 718 mmHg 88%
    04:00 +25°C° 0,4 mm 3 m/s 718 mmHg 87%
    05:00 +25°C° 0,4 mm 2 m/s 718 mmHg 86%
    06:00 +25°C° 0 mm 2 m/s 718 mmHg 85%
    07:00 +25°C° 0 mm 2 m/s 719 mmHg 84%
    08:00 +26°C° 0 mm 2 m/s 719 mmHg 83%
    09:00 +27°C° 0 mm 2 m/s 720 mmHg 76%
    10:00 +29°C° 0 mm 3 m/s 720 mmHg 69%
    11:00 +31°C° 0 mm 3 m/s 720 mmHg 61%
    12:00 +33°C° 0 mm 3 m/s 719 mmHg 56%
    13:00 +34°C° 0 mm 3 m/s 718 mmHg 51%
    14:00 +35°C° 0 mm 3 m/s 718 mmHg 46%
    15:00 +35°C° 0 mm 3 m/s 717 mmHg 45%
    16:00 +35°C° 0 mm 3 m/s 717 mmHg 45%
    17:00 +35°C° 0 mm 2 m/s 717 mmHg 44%
    18:00 +34°C° 0 mm 2 m/s 717 mmHg 48%
    19:00 +32°C° 0 mm 2 m/s 717 mmHg 52%
    20:00 +31°C° 0 mm 2 m/s 717 mmHg 56%
    21:00 +30°C° 0,3 mm 2 m/s 718 mmHg 60%
    22:00 +29°C° 0,3 mm 3 m/s 718 mmHg 65%
    23:00 +28°C° 0,3 mm 3 m/s 718 mmHg 69%

    24 Iunie, Duminică

    Timp Temperatura Precipitaţii Vânt Presiune Umiditate
    00:00 +28°C° 0,4 mm 3 m/s 718 mmHg 72%
    01:00 +27°C° 0,4 mm 3 m/s 718 mmHg 75%
    02:00 +27°C° 0,4 mm 4 m/s 717 mmHg 79%
    03:00 +26°C° 0 mm 3 m/s 717 mmHg 80%
    04:00 +26°C° 0 mm 3 m/s 717 mmHg 81%
    05:00 +26°C° 0 mm 2 m/s 717 mmHg 82%
    06:00 +26°C° 0 mm 2 m/s 718 mmHg 80%
    07:00 +27°C° 0 mm 2 m/s 718 mmHg 77%
    08:00 +27°C° 0 mm 2 m/s 719 mmHg 75%
    09:00 +29°C° 0 mm 2 m/s 719 mmHg 65%
    10:00 +32°C° 0 mm 2 m/s 719 mmHg 55%
    11:00 +35°C° 0 mm 3 m/s 718 mmHg 45%
    12:00 +36°C° 0 mm 2 m/s 718 mmHg 40%
    13:00 +38°C° 0 mm 2 m/s 717 mmHg 36%
    14:00 +39°C° 0 mm 2 m/s 717 mmHg 31%
    15:00 +39°C° 0 mm 2 m/s 716 mmHg 31%
    16:00 +39°C° 0 mm 2 m/s 716 mmHg 31%
    17:00 +38°C° 0 mm 2 m/s 716 mmHg 31%
    18:00 +36°C° 0,2 mm 2 m/s 716 mmHg 37%
    19:00 +35°C° 0,2 mm 2 m/s 716 mmHg 43%
    20:00 +32°C° 0,2 mm 2 m/s 716 mmHg 49%
    21:00 +31°C° 0,4 mm 2 m/s 717 mmHg 53%
    22:00 +30°C° 0,4 mm 2 m/s 717 mmHg 56%
    23:00 +29°C° 0,4 mm 1 m/s 717 mmHg 60%
    Arată mai mult